Pipestone, MN

10:49 PM CST on February 08, 2016 (GMT -0600)
Pipestone Municipal

Weather History for KPQN - January, 2014

Change the Weather History Date:

Tuesday, January 7, 2014

  Actual Average Record
Temperature  
Mean Temperature -2 °F -  
Max Temperature 6 °F 22 °F 55 °F (2003)
Min Temperature -9 °F 7 °F -11 °F (1997)
Degree Days  
Heating Degree Days 66    
Moisture  
Dew Point -7 °F    
Average Humidity 74    
Maximum Humidity 85    
Minimum Humidity 61    
Precipitation  
Precipitation 0.00 in - - ()
Sea Level Pressure  
Sea Level Pressure 30.08 in    
Wind  
Wind Speed 4 mph (WNW)    
Max Wind Speed 10 mph    
Max Gust Speed -    
Visibility 10 miles    
Events Snow    
Averages and records for this station are not official NWS values.
T = Trace of Precipitation, MM = Missing Value Source: NWS Daily Summary

Daily Weather History Graph

Daily Weather History Graph

Search for Another Location

Airport or City:

Trip Planner

Search our weather history database for the weather conditions in past years. The results will help you decide how hot, cold, wet, or windy it might be!

Date:

Astronomy

Jan. 07, 2014 Rise Set
Actual Time 7:59 AM CST 5:03 PM CST
Civil Twilight 7:26 AM CST 5:36 PM CST
Nautical Twilight 6:50 AM CST 6:12 PM CST
Astronomical Twilight 6:15 AM CST 6:47 PM CST
Moon 11:33 AM CST (1/7) No Moon Set
Length of Visible Light 10h 09m
Length of Day
9h 04m
Waxing Crescent, 46% of the Moon is Illuminated
Jan 7
Waxing Crescent
Jan 7
First Quarter
Jan 15
Full
Jan 23
Last Quarter
Jan 30
New

Hourly Weather History & Observations

Time (CST) Temp. Windchill Dew Point Humidity Pressure Visibility Wind Dir Wind Speed Gust Speed Precip Events Conditions
12:13 AM -9.4 °F -18.6 °F -16.6 °F 71% 30.10 in 10.0 mi West 3.5 mph - N/A   Clear
12:33 AM -9.4 °F -22.7 °F -14.8 °F 77% 30.10 in 10.0 mi WNW 5.8 mph - N/A   Clear
12:53 AM -7.6 °F -20.6 °F -14.8 °F 71% 30.07 in 10.0 mi WSW 5.8 mph - N/A   Clear
1:13 AM -7.6 °F -20.6 °F -14.8 °F 71% 30.06 in 10.0 mi West 5.8 mph - N/A   Scattered Clouds
1:33 AM -7.6 °F -22.1 °F -14.8 °F 71% 30.05 in 10.0 mi WSW 6.9 mph - N/A   Overcast
1:52 AM -7.6 °F -20.6 °F -14.8 °F 71% 30.05 in 10.0 mi WSW 5.8 mph - N/A   Overcast
2:13 AM -7.6 °F - -14.8 °F 71% 30.04 in 10.0 mi Calm Calm - N/A   Mostly Cloudy
2:33 AM -7.6 °F - -14.8 °F 71% 30.05 in 10.0 mi Calm Calm - N/A   Scattered Clouds
2:53 AM -7.6 °F - -14.8 °F 71% 30.06 in 10.0 mi Calm Calm - N/A   Mostly Cloudy
3:13 AM -7.6 °F -18.8 °F -13.0 °F 77% 30.05 in 10.0 mi SSW 4.6 mph - N/A   Overcast
3:33 AM -7.6 °F -22.1 °F -13.0 °F 77% 30.05 in 10.0 mi SW 6.9 mph - N/A   Overcast
3:53 AM -5.8 °F -23.4 °F -11.2 °F 77% 30.05 in 10.0 mi SW 10.4 mph - N/A   Overcast
4:13 AM -5.8 °F -22.4 °F -11.2 °F 77% 30.04 in 10.0 mi SW 9.2 mph - N/A   Overcast
4:33 AM -5.8 °F -18.4 °F -11.2 °F 77% 30.04 in 10.0 mi WSW 5.8 mph - N/A   Mostly Cloudy
4:53 AM -5.8 °F -19.9 °F -11.2 °F 77% 30.03 in 10.0 mi WSW 6.9 mph - N/A   Mostly Cloudy
5:13 AM -5.8 °F -21.2 °F -11.2 °F 77% 30.02 in 10.0 mi SW 8.1 mph - N/A   Overcast
5:33 AM -4.0 °F - -11.2 °F 71% 30.03 in 10.0 mi Calm Calm - N/A   Overcast
5:53 AM -4.0 °F -12.4 °F -9.4 °F 78% 30.02 in 10.0 mi WSW 3.5 mph - N/A   Overcast
6:12 AM -4.0 °F -17.8 °F -9.4 °F 78% 30.01 in 10.0 mi SW 6.9 mph - N/A   Overcast
6:33 AM -4.0 °F -17.8 °F -9.4 °F 78% 30.01 in 10.0 mi SSW 6.9 mph - N/A Snow Light Snow
6:53 AM -2.2 °F -14.2 °F -9.4 °F 71% 30.00 in 10.0 mi SW 5.8 mph - N/A   Overcast
7:12 AM -2.2 °F -12.5 °F -9.4 °F 71% 30.02 in 10.0 mi SW 4.6 mph - N/A Snow Light Snow
7:33 AM -2.2 °F -10.4 °F -7.6 °F 78% 30.01 in 10.0 mi SW 3.5 mph - N/A Snow Light Snow
7:53 AM -2.2 °F - -7.6 °F 78% 30.01 in 10.0 mi Calm Calm - N/A   Overcast
8:13 AM -0.4 °F - -7.6 °F 72% 30.02 in 10.0 mi Calm Calm - N/A Snow Light Snow
8:33 AM -0.4 °F - -7.6 °F 72% 30.02 in 10.0 mi Calm Calm - N/A Snow Light Snow
8:53 AM -0.4 °F - -7.6 °F 72% 30.03 in 10.0 mi Calm Calm - N/A Snow Light Snow
9:13 AM -0.4 °F - -7.6 °F 72% 30.03 in 10.0 mi Calm Calm - N/A Snow Light Snow
9:33 AM 1.4 °F - -5.8 °F 72% 30.03 in 10.0 mi Calm Calm - N/A   Mostly Cloudy
9:53 AM 1.4 °F - -5.8 °F 72% 30.05 in 10.0 mi Calm Calm - N/A   Overcast
10:13 AM 1.4 °F - -5.8 °F 72% 30.05 in 10.0 mi Calm Calm - N/A   Overcast
10:33 AM 3.2 °F - -5.8 °F 66% 30.05 in 10.0 mi Calm Calm - N/A   Scattered Clouds
10:53 AM 3.2 °F - -5.8 °F 66% 30.05 in 10.0 mi Calm Calm - N/A   Clear
11:13 AM 3.2 °F - -5.8 °F 66% 30.04 in 10.0 mi Calm Calm - N/A   Clear
11:33 AM 3.2 °F - -4.0 °F 72% 30.05 in 10.0 mi Calm Calm - N/A   Mostly Cloudy
11:53 AM 5.0 °F - -4.0 °F 66% 30.03 in 10.0 mi Calm Calm - N/A   Mostly Cloudy
12:13 PM 6.8 °F -4.8 °F -4.0 °F 61% 30.03 in 10.0 mi NE 6.9 mph - N/A   Scattered Clouds
12:33 PM 5.0 °F - -4.0 °F 66% 30.02 in 10.0 mi Calm Calm - N/A   Clear
12:53 PM 5.0 °F -4.1 °F -2.2 °F 72% 30.02 in 10.0 mi NNE 4.6 mph - N/A   Clear
1:13 PM 6.8 °F -2.0 °F -2.2 °F 67% 30.03 in 10.0 mi North 4.6 mph - N/A   Clear
1:33 PM 6.8 °F -2.0 °F -2.2 °F 67% 30.03 in 10.0 mi North 4.6 mph - N/A   Clear
1:53 PM 6.8 °F -2.0 °F -2.2 °F 67% 30.04 in 10.0 mi North 4.6 mph - N/A   Clear
2:13 PM 6.8 °F -3.5 °F -2.2 °F 67% 30.05 in 10.0 mi NNE 5.8 mph - N/A   Clear
2:33 PM 5.0 °F -5.6 °F -2.2 °F 72% 30.06 in 10.0 mi North 5.8 mph - N/A   Clear
2:53 PM 6.8 °F -0.1 °F -2.2 °F 67% 30.06 in 10.0 mi North 3.5 mph - N/A   Clear
3:13 PM 6.8 °F -0.1 °F -2.2 °F 67% 30.06 in 10.0 mi North 3.5 mph - N/A   Clear
3:33 PM 6.8 °F -0.1 °F -2.2 °F 67% 30.08 in 10.0 mi NNW 3.5 mph - N/A   Clear
3:53 PM 5.0 °F -2.1 °F -2.2 °F 72% 30.09 in 10.0 mi NW 3.5 mph - N/A   Clear
4:13 PM 5.0 °F - -2.2 °F 72% 30.09 in 10.0 mi Calm Calm - N/A   Clear
4:33 PM 3.2 °F -6.2 °F -2.2 °F 78% 30.10 in 10.0 mi WNW 4.6 mph - N/A   Mostly Cloudy
4:53 PM 3.2 °F -6.2 °F -2.2 °F 78% 30.10 in 10.0 mi NW 4.6 mph - N/A   Scattered Clouds
5:13 PM 3.2 °F -4.2 °F -2.2 °F 78% 30.11 in 10.0 mi NNW 3.5 mph - N/A   Clear
5:33 PM 3.2 °F -6.2 °F -4.0 °F 72% 30.12 in 10.0 mi NW 4.6 mph - N/A   Clear
5:53 PM 1.4 °F -8.3 °F -4.0 °F 78% 30.13 in 10.0 mi NW 4.6 mph - N/A   Mostly Cloudy
6:13 PM 1.4 °F -6.2 °F -4.0 °F 78% 30.13 in 10.0 mi NNW 3.5 mph - N/A   Mostly Cloudy
6:33 PM 1.4 °F -8.3 °F -4.0 °F 78% 30.13 in 10.0 mi NNW 4.6 mph - N/A   Overcast
6:53 PM 3.2 °F -7.8 °F -4.0 °F 72% 30.14 in 10.0 mi NNW 5.8 mph - N/A   Overcast
7:13 PM 1.4 °F -6.2 °F -4.0 °F 78% 30.14 in 10.0 mi North 3.5 mph - N/A   Overcast
7:33 PM 1.4 °F -9.9 °F -4.0 °F 78% 30.14 in 10.0 mi North 5.8 mph - N/A   Overcast
7:53 PM 1.4 °F -9.9 °F -4.0 °F 78% 30.14 in 10.0 mi North 5.8 mph - N/A   Overcast
8:13 PM 1.4 °F -6.2 °F -5.8 °F 72% 30.15 in 10.0 mi NNW 3.5 mph - N/A   Scattered Clouds
8:33 PM 1.4 °F - -5.8 °F 72% 30.15 in 10.0 mi Calm Calm - N/A   Clear
8:53 PM -2.2 °F - -7.6 °F 78% 30.16 in 10.0 mi Calm Calm - N/A   Clear
9:13 PM -0.4 °F - -5.8 °F 78% 30.16 in 10.0 mi Calm Calm - N/A   Clear
9:33 PM -0.4 °F -10.4 °F -5.8 °F 78% 30.16 in 10.0 mi NNW 4.6 mph - N/A   Clear
9:53 PM -0.4 °F -8.3 °F -5.8 °F 78% 30.17 in 10.0 mi NNW 3.5 mph - N/A   Clear
10:13 PM -0.4 °F - -5.8 °F 78% 30.17 in 10.0 mi Calm Calm - N/A   Clear
10:33 PM -2.2 °F - -5.8 °F 85% 30.18 in 10.0 mi Calm Calm - N/A   Clear
10:53 PM -0.4 °F - -5.8 °F 78% 30.19 in 10.0 mi Calm Calm - N/A   Clear
11:13 PM -0.4 °F -10.4 °F -5.8 °F 78% 30.19 in 10.0 mi NNW 4.6 mph - N/A   Clear
11:33 PM -2.2 °F -12.5 °F -5.8 °F 85% 30.19 in 10.0 mi NW 4.6 mph - N/A   Clear
11:53 PM -0.4 °F -10.4 °F -5.8 °F 78% 30.20 in 10.0 mi NW 4.6 mph - N/A   Clear